Regional Weather Roundup
Issued by NWS Wakefield, VA

Home | Current Version | Previous Version | Graphics & Text | Print | Product List | Glossary On
Versions: 1 2 3 4 5 6 7 8 9 10 11 12 13 14 15 16 17 18 19 20 21 22 23 24 25 26 27
000
ASUS41 KAKQ 290315
RWRAKQ

REGIONAL WEATHER ROUNDUP
NATIONAL WEATHER SERVICE WAKEFIELD VA
1100 PM EDT SUN AUG 28 2016

Note: "fair" indicates few or no clouds below 12,000 feet with no
significant weather and/or obstructions to visibility. * = Denotes
station may not report precipitation (e.g., rain,snow,etc.),
thunder or fog.

VAZ042-051-052>054-056-290400-
NORTHERN VIRGINIA

CITY           SKY/WX    TMP DP  RH WIND       PRES   REMARKS
WASH NATIONAL  PTCLDY    79  66  64 SE5       30.20R
DULLES         PTCLDY    72  63  73 CALM      30.20R
FORT BELVOIR   CLEAR     70  67  89 CALM      30.19R
QUANTICO       CLEAR     75  71  87 NW7       30.19R
FREDERICKSBRG* PTCLDY    72  69  93 CALM      30.18R
STAFFORD*      CLEAR     67  66  96 CALM      30.23S
WARRENTON      CLEAR     67  62  83 CALM      30.20R
CULPEPER*      CLEAR     69  68  97 CALM      30.20S
MANASSAS*      CLEAR     72  70  94 CALM      30.20R
LEESBURG*      PTCLDY    73  68  83 W6        30.21S
WINCHESTER     CLEAR     70  64  83 NE6       30.22R
FRONT ROYAL*   FAIR      70  66  88 CALM      30.19S
LURAY*         FAIR      72  68  88 CALM      30.22R
$$

VAZ048-049-060>072-079>083-290400-
CENTRAL AND SOUTH CENTRAL VIRGINIA

CITY           SKY/WX    TMP DP  RH WIND       PRES   REMARKS
RICHMOND       PTCLDY    72  67  84 NE5       30.17R
CHESTERFIELD*  FAIR      75  55  50 CALM      30.18R
PETERSBURG*    PTCLDY    70  70 100 CALM      30.17R
HANOVER        CLEAR     69  65  86 CALM      30.19R
TAPPAHANNOCK*  CLEAR     69  69 100 CALM      30.18R
QUINTON*       FAIR      72  69  88 CALM      30.17R
CHARLOTTSVILLE CLEAR     73  67  81 CALM      30.20R
GORDONSVILLE*  FAIR      70  70 100 CALM      30.19S
ORANGE*          N/A     70  70 100 CALM      30.22R
LOUISA*        CLEAR     70  66  88 CALM      30.19R
BUMPASS*       FAIR      67  66  94 CALM      30.19R
FARMVILLE*     PTCLDY    73  71  92 N3        30.17R
CREWE*         FAIR      70  70 100 CALM      30.17S
FORT PICKETT*  NOT AVBL
CHASE CITY*    FAIR      75  67  77 CALM      30.17R
CLARKSVILLE*   FAIR      77  70  78 E3        30.16R
SOUTH HILL*    PTCLDY    73  69  87 CALM      30.22R
LAWRENCEVILLE* FAIR      73  70  90 E3        30.16R
EMPORIA*       PTCLDY    72  68  88 CALM      30.17R
$$

VAZ088>098-290400-
SOUTHEAST VIRGINIA

CITY           SKY/WX    TMP DP  RH WIND       PRES   REMARKS
NORFOLK        PTCLDY    77  72  84 NE8       30.13S
VIRGINIA BEACH MOCLDY    82  72  71 E6        30.12S
NORFOLK NAVAL  PTCLDY    78  71  79 NE8       30.15S
WEST POINT*    PTCLDY    71  67  88 CALM      30.18S
SALUDA*        FAIR      76  69  78 E7        30.16S
NEWPORT NEWS   CLEAR     74  70  87 NE5       30.15S
LANGLEY AFB    PTCLDY    76  71  84 E8        30.14S
FORT EUSTIS    CLEAR     74  69  84 NE3       30.13S
WILLIAMSBURG*  PTCLDY    73  70  88 CALM      30.17R
HR EXEC AP*    FAIR      72  68  88 NE5       30.15F
FRANKLIN*      CLEAR     71  69  93 CALM      30.15R
US460-WAKEFLD  PTCLDY    71  68  90 CALM      30.15S
$$

VAZ020-022-025-037-045-290400-
WEST CENTRAL AND SOUTHWEST VIRGINIA

CITY           SKY/WX    TMP DP  RH WIND       PRES   REMARKS
STAUNTON*      CLEAR     68  64  87 CALM      30.26R
WAYNESBORO*    FAIR      70  64  79 CALM      30.24R
HOT SPRINGS VA CLOUDY    67  60  78 CALM      30.36R
LYNCHBURG      CLEAR     70  66  87 CALM      30.22R
DANVILLE       CLEAR     71  68  90 CALM      30.17R
SOUTH BOSTON*  FAIR      71  69  95 NE3       30.16R
MARTINSVILLE   CLEAR     67  65  95 CALM      30.21R
ROANOKE        CLEAR     71  61  70 CALM      30.23R
BLACKSBURG     CLEAR     68  64  86 CALM      30.29R
DUBLIN*        CLEAR     68  65  91 CALM      30.28R
MARION*        CLEAR     69  65  88 CALM      30.30S
HILLSVILLE*    CLEAR     69  62  77 CALM      30.28R
RICHLANDS*     FAIR      74  66  75 CALM      30.28R
WISE*          PTCLDY    72  70  94 CALM      30.28S
ABINGDON*      PTCLDY    77  67  72 NE3       30.24R
$$

MDZ021>025-VAZ099-100-290400-
SOUTHERN MARYLAND AND THE DELMARVA PENINSULA

CITY           SKY/WX    TMP DP  RH WIND       PRES   REMARKS
PATUXENT RIVER CLEAR     76  65  68 E7        30.18R
BAY BRIDGE APT CLEAR     77  66  69 SE8       30.19R
LEONARDTOWN    CLEAR     70  64  83 CALM      30.20R
DOVER          CLEAR     72  72 100 S5        30.17S
GEORGETOWN     NOT AVBL
EASTON         CLEAR     73  69  89 CALM      30.23R
CAMBRIDGE      PTCLDY    66  64  94 CALM      30.19R
SALISBURY      CLEAR     69  66  90 CALM      30.18R
OCEAN CITY     CLEAR     76  66  71 E7        30.17R
WALLOPS ISLAND CLEAR     75  60  59 E8        30.16S
ACCOMACK*      CLEAR     69  65  88 E5        30.16S
$$

NCZ012>017-030>032-290400-
NORTH CENTRAL AND EASTERN NORTH CAROLINA

CITY           SKY/WX    TMP DP  RH WIND       PRES   REMARKS
ROANOKE RAPIDS FAIR      70  68  94 N3        30.15R
RALEIGH        CLOUDY    80  68  66 E7        30.14R
ELIZABETH CITY CLOUDY    77  74  90 N7        30.11F
AHOSKIE*       MOCLDY    71  69  93 CALM      30.14S
EDENTON*       CLOUDY   N/A N/A N/A NE3       30.12S
CURRITUCK*       N/A     79  75  86 NE7       30.12S
KILL DEVIL HLS CLOUDY    79  79 100 NE3       30.09S
MANTEO         CLOUDY    79  78  97 NE10      30.09F
CAPE HATTERAS  CLOUDY    79  76  90 NE5       30.09S
TARBORO*       LGT RAIN  75  71  89 CALM      30.14S
GOLDSBORO      PTCLDY    76  76 100 E8        30.10F
WASHINGTON     CLEAR     74  73  96 NE5       30.12S
GREENVILLE     PTCLDY    75  73  94 CALM      30.13S
NEW BERN       CLEAR     77  75  93 NE6       30.11F
WILMINGTON     CLOUDY    76  74  93 N6        30.09S
$$

VAZ048-290400-
ELSEWHERE

CITY           SKY/WX    TMP DP  RH WIND       PRES   REMARKS
HARRISBURG PA  MOCLDY    79  68  69 VRB3      30.19R
BALTIMORE      PTCLDY    73  65  75 CALM      30.20R
ANNAPOLIS      CLEAR     80  68  66 SE8       30.19R
ANDREWS AFB    CLEAR     72  66  82 SE5       30.20R
PHILADELPHIA   CLEAR     77  65  66 S7        30.20R
HENDERSON NC   CLOUDY    72  65  80 E3        30.16R
GREENSBORO     PTCLDY    76  67  73 CALM      30.16S
ROCKY MOUNT    CLOUDY    76  72  87 CALM      30.14R
$$

VAZ100-290400-
MARINE

STATION/POSITION TIME  TEMP    WIND        PRES    WAVE   SWELL
                       AIR SEA DIR/SP/G            HT/PER HT/PER
                 (UTC) (F)     (DEG/KT/KT) (MB)    (FT/S) (FT/S)
BRANDYWINE LGT   0200   75     130/  7/  8   N/A
CAPE MAY NJ      0200   74 75  110/  6/  8 1021.1R
LEWES DE         0200   75 78  130/  5/  7 1021.5R
OCEAN-CITY-INLET 0200   77 76  110/  5/  7 1021.7R
WACHAPREAGUE VA  0200   77 83   80/  7/ 11 1021.0F
THOMAS POINT MD  0300   78 83  140/ 11/ 13 1023.7R
GOOSES REEF MD   0200   80 83  130/ 12/ 16 1021.9R   2/ 3
COVE POINT MD    0200   78     150/ 13/ 18 1021.9R
SOLOMONS ISLAND  0200   80 85  110/ 11/ 13   N/A
PINEY POINT MD   0200          130/ 12/ 13   N/A
POTOMAC MD       0200   79 84  120/ 14/ 16 1020.3R   2/ 3
CAMBRIDGE MD     0200   75 84  110/  5/  7 1021.1R
LEWISETTA VA     0200   79 85  120/ 15/ 17 1020.7R
RAPPAHANNOCK LGT 0200           70/ 11/ 13 1021.5R
STINGRAY PT      0200   79 84   40/ 14/ 16 1021.5R   2/ 3
YORK RVR RNG VA  0200   78      90/ 10/ 13 1020.4R
YORKTOWN VA      0200   78 84   80/ 12/ 16 1020.6R
JAMESTOWN VA     0200   78 86   90/  4/  8   N/A
DOMINION TERM VA 0200   78      70/ 11/ 14 1020.7S
KIPTOPEKE VA     0200      81   90/  5/  7   N/A
CHES BAY BRIDGE  0200   78 76   50/ 12/ 14 1020.3F
CAPE HENRY VA    0200   78      60/ 13/ 15   N/A
WILLOUBY STN VA  0200   78      70/ 12/ 13   N/A
CAPE HENRY BUOY  0212      80                N/A     4/ 6
1ST LANDING BUOY 0200   78 78   90/ 12/ 14 1020.3F   2/ 3
CAPE CHARLES BUO 0226      80                N/A     4/ 6   2/15
OFFSHORE WE BUOY 0221      80                N/A     5/ 6   2/14
64NM E OF VA BCH 0250   80 81   60/ 12/ 14 1019.1F   5/ 6   3/ 6
DUCK PIER NC     0200   79 78   40/ 14/ 16 1019.1F
44100 DUCK FRF   0205      80                N/A     5/ 5
44056 DUCK FRF   0211      79                N/A     4/ 6
OREGON INLET NC  0200   80 81   30/  7/ 10 1019.2F
HATTERAS NC      0200   81 83   50/  5/  8 1018.6F
DIAMOND SHLS NC  0250   83 84   90/ 10/ 12 1018.6S   4/15   3/15
CAPE LOOKOUT NC  0300   82      60/ 14/ 16 1018.3R
$$




USA.gov is the U.S. government's official web portal to all federal, state and local government web resources and services.